2023/08/25 00:00:00,38.6,22.3
2023/08/25 00:10:00,38.6,22.4
2023/08/25 00:20:00,38.6,22.3
2023/08/25 00:30:00,38.6,22.4
2023/08/25 00:40:00,38.6,22.3
2023/08/25 00:50:00,38.6,22.3
2023/08/25 01:00:00,38.7,22.3
2023/08/25 01:10:00,38.7,22.2
2023/08/25 01:20:00,38.6,22.2
2023/08/25 01:30:00,38.7,22.8
2023/08/25 01:40:00,38.6,22.7
2023/08/25 01:50:00,38.6,22.8
2023/08/25 02:00:00,38.7,23.0
2023/08/25 02:10:00,38.6,23.3
2023/08/25 02:20:00,38.6,22.7
2023/08/25 02:30:00,38.6,22.5
2023/08/25 02:40:00,38.6,22.3
2023/08/25 02:50:00,38.7,22.3
2023/08/25 03:00:00,38.7,22.0
2023/08/25 03:10:00,38.6,21.8
2023/08/25 03:20:00,38.6,21.8
2023/08/25 03:30:00,38.6,21.9
2023/08/25 03:40:00,38.7,21.8
2023/08/25 03:50:00,38.7,22.1
2023/08/25 04:00:00,38.7,22.5
2023/08/25 04:10:00,38.7,22.0
2023/08/25 04:20:00,38.6,22.0
2023/08/25 04:30:00,38.6,21.6
2023/08/25 04:40:00,38.7,21.6
2023/08/25 04:50:00,38.7,21.4
2023/08/25 05:00:00,38.6,21.4
2023/08/25 05:10:00,38.6,21.5
2023/08/25 05:20:00,38.6,21.4
2023/08/25 05:30:00,38.5,21.2
2023/08/25 05:40:00,38.6,21.1
2023/08/25 05:50:00,38.6,21.3
2023/08/25 06:00:00,38.9,21.2
2023/08/25 06:10:00,42.2,21.7
2023/08/25 06:20:00,54.9,21.4
2023/08/25 06:30:00,57.2,21.4
2023/08/25 06:40:00,58.6,21.8
2023/08/25 06:50:00,55.6,22.0
2023/08/25 07:00:00,---,22.6
2023/08/25 07:10:00,62.7,23.3
2023/08/25 07:20:00,62.6,23.7
2023/08/25 07:30:00,---,24.2
2023/08/25 07:40:00,54.5,24.4
2023/08/25 07:50:00,---,24.7
2023/08/25 08:00:00,---,24.7
2023/08/25 08:10:00,49.8,25.4
2023/08/25 08:20:00,43.5,25.8
2023/08/25 08:30:00,37.4,26.3
2023/08/25 08:40:00,37.2,26.5
2023/08/25 08:50:00,38.2,26.9
2023/08/25 09:00:00,38.1,27.1
2023/08/25 09:10:00,38.2,27.6
2023/08/25 09:20:00,---,27.4
2023/08/25 09:30:00,14.7,27.0
2023/08/25 09:40:00,24.7,27.1
2023/08/25 09:50:00,37.7,26.7
2023/08/25 10:00:00,37.7,26.7
2023/08/25 10:10:00,37.2,26.8
2023/08/25 10:20:00,38.0,26.5
2023/08/25 10:30:00,38.1,27.5
2023/08/25 10:40:00,37.8,27.8
2023/08/25 10:50:00,---,27.8
2023/08/25 11:00:00,36.4,27.6
2023/08/25 11:10:00,34.9,28.0
2023/08/25 11:20:00,37.3,27.7
2023/08/25 11:30:00,37.5,28.2
2023/08/25 11:40:00,36.5,28.5
2023/08/25 11:50:00,37.1,28.8
2023/08/25 12:00:00,36.6,29.4
2023/08/25 12:10:00,26.6,29.2
2023/08/25 12:20:00, 8.9,29.2
2023/08/25 12:30:00,23.6,28.5
2023/08/25 12:40:00,32.8,30.1
2023/08/25 12:50:00,---,30.0
2023/08/25 13:00:00, 2.2,29.2
2023/08/25 13:10:00,27.2,29.3
2023/08/25 13:20:00,35.2,29.1
2023/08/25 13:30:00, 7.5,29.7
2023/08/25 13:40:00, 0.1,30.2
2023/08/25 13:50:00, 0.2,30.1
2023/08/25 14:00:00, 0.8,31.2
2023/08/25 14:10:00, 1.0,31.1
2023/08/25 14:20:00, 0.3,32.0
2023/08/25 14:30:00, 0.2,31.5
2023/08/25 14:40:00,11.3,30.0
2023/08/25 14:50:00,37.6,28.4
2023/08/25 15:00:00,37.4,28.7
2023/08/25 15:10:00,37.2,27.9
2023/08/25 15:20:00,37.6,28.0
2023/08/25 15:30:00,37.4,27.8
2023/08/25 15:40:00,37.6,27.6
2023/08/25 15:50:00,37.7,27.9
2023/08/25 16:00:00,37.8,27.6
2023/08/25 16:10:00,37.9,27.2
2023/08/25 16:20:00,38.0,25.9
2023/08/25 16:30:00,38.0,25.6
2023/08/25 16:40:00,38.9,25.4
2023/08/25 16:50:00,38.1,25.4
2023/08/25 17:00:00,38.1,25.1
2023/08/25 17:10:00,38.4,25.0
2023/08/25 17:20:00,38.2,24.9
2023/08/25 17:30:00,38.0,24.4
2023/08/25 17:40:00,38.1,24.3
2023/08/25 17:50:00,38.2,24.0
2023/08/25 18:00:00,38.4,23.9
2023/08/25 18:10:00,38.3,23.6
2023/08/25 18:20:00,35.3,23.2
2023/08/25 18:30:00,22.9,21.5
2023/08/25 18:40:00,20.5,21.2
2023/08/25 18:50:00,22.9,20.9
2023/08/25 19:00:00,23.2,21.2
2023/08/25 19:10:00,23.6,20.8
2023/08/25 19:20:00,23.6,20.7
2023/08/25 19:30:00,23.6,20.8
2023/08/25 19:40:00,23.7,20.8
2023/08/25 19:50:00,23.7,21.3
2023/08/25 20:00:00,23.7,21.2
2023/08/25 20:10:00,23.8,21.2
2023/08/25 20:20:00,23.9,21.0
2023/08/25 20:30:00,23.7,21.0
2023/08/25 20:40:00,23.5,20.7
2023/08/25 20:50:00,23.8,20.8
2023/08/25 21:00:00,23.8,20.7
2023/08/25 21:10:00,23.7,20.9
2023/08/25 21:20:00,23.7,20.6
2023/08/25 21:30:00,23.9,20.4
2023/08/25 21:40:00,24.0,20.5
2023/08/25 21:50:00,23.9,20.5
2023/08/25 22:00:00,23.7,20.5
2023/08/25 22:10:00,23.4,20.2
2023/08/25 22:20:00,23.4,20.4
2023/08/25 22:30:00,23.3,20.4
2023/08/25 22:40:00,23.3,20.3
2023/08/25 22:50:00,23.1,20.2
2023/08/25 23:00:00,23.6,20.4
2023/08/25 23:10:00,23.6,20.4
2023/08/25 23:20:00,23.4,20.4
2023/08/25 23:30:00,23.7,20.4
2023/08/25 23:40:00,23.8,20.3
2023/08/25 23:50:00,23.7,20.2
